This is the latest recevied weather packets stored in our database for station/object DB0SMU-12. If no packets are shown the sender has not sent any weather packets the latest 1 day(s).
| Time | Temp. | Humidity | Pressure | Rain* | Wind** | Luminosity | Snow |
|---|---|---|---|---|---|---|---|
| 1778065306 | 17.22° C | 49% | 1007 hPa | 0 mm | - | - | - |
| 1778065125 | 18.33° C | 46% | 1007.2 hPa | 0 mm | - | - | - |
| 1778064221 | 17.78° C | 50% | 1007.4 hPa | 0 mm | - | - | - |
| 1778064040 | 17.22° C | 49% | 1007.6 hPa | 0 mm | - | - | - |
| 1778063859 | 17.78° C | 51% | 1007.6 hPa | 0 mm | - | - | - |
| 1778063678 | 17.22° C | 52% | 1007.4 hPa | 0 mm | - | - | - |
| 1778062774 | 16.67° C | 52% | 1007.6 hPa | 0 mm | - | - | - |
| 1778062593 | 17.22° C | 52% | 1007.7 hPa | 0 mm | - | - | - |
| 1778062412 | 16.67° C | 54% | 1007.7 hPa | 0 mm | - | - | - |
| 1778061327 | 16.67° C | 52% | 1007.9 hPa | 0 mm | - | - | - |
| 1778061146 | 16.67° C | 53% | 1007.8 hPa | 0 mm | - | - | - |
| 1778060965 | 16.11° C | 52% | 1007.8 hPa | 0 mm | - | - | - |
| 1778060061 | 16.67° C | 53% | 1007.8 hPa | 0 mm | - | - | - |
| 1778059880 | 16.11° C | 54% | 1007.8 hPa | 0 mm | - | - | - |
| 1778059699 | 16.11° C | 54% | 1007.8 hPa | 0 mm | - | - | - |
| 1778059517 | 16.11° C | 53% | 1007.8 hPa | 0 mm | - | - | - |
| 1778059155 | 16.11° C | 56% | 1008 hPa | 0 mm | - | - | - |
| 1778058794 | 16.11° C | 56% | 1008 hPa | 0 mm | - | - | - |
| 1778058613 | 15.56° C | 57% | 1007.9 hPa | 0 mm | - | - | - |
| 1778058251 | 15° C | 57% | 1007.9 hPa | 0 mm | - | - | - |
| 1778057709 | 15° C | 57% | 1007.8 hPa | 0 mm | - | - | - |
| 1778057528 | 15° C | 59% | 1007.9 hPa | 0 mm | - | - | - |
| 1778057347 | 15° C | 58% | 1008.1 hPa | 0 mm | - | - | - |
| 1778057166 | 15° C | 58% | 1008 hPa | 0 mm | - | - | - |
| 1778056985 | 15° C | 59% | 1008 hPa | 0 mm | - | - | - |
* Rain latest hour (hover to see other rain measurements)
** Current wind speed in m/s (hover to see current wind gust speed)